Location: Poughquag
(41.6090°N, 73.6820°W)
Time: 16:31:45
(UTC-04:00)

ISS - Visible Passes

Search period start: 25 September 2017 00:00
Search period end: 05 October 2017 00:00
Orbit: 401 x 407 km, 51.6° (Epoch: 26 September)

Date Brightness Start Highest point End Pass type
(mag) Time Alt. Az. Time Alt. Az. Time Alt. Az.
25 Sep -3.2 19:53:36 10° SSW 19:56:38 37° SE 19:57:34 30° E visible
25 Sep -0.4 21:30:11 10° W 21:30:17 11° W 21:30:17 11° W visible
26 Sep -3.0 20:37:30 10° WSW 20:40:35 49° NW 20:40:35 49° NW visible
27 Sep -3.9 19:45:02 10° SW 19:48:18 89° NNW 19:50:41 17° NE visible
27 Sep -0.5 21:22:36 10° WNW 21:23:21 14° WNW 21:23:21 14° WNW visible
28 Sep -2.0 20:29:42 10° W 20:32:34 27° NNW 20:33:19 24° N visible
29 Sep -2.7 19:36:56 10° W 19:40:03 41° NNW 19:43:09 10° NE visible
29 Sep -0.6 21:15:04 10° NW 21:15:48 13° NW 21:15:48 13° NW visible
30 Sep -1.5 20:22:06 10° WNW 20:24:30 19° NNW 20:25:32 16° N visible
01 Oct -1.8 19:29:08 10° WNW 19:31:53 24° NNW 19:34:38 10° NE visible
01 Oct -0.6 21:07:19 10° NW 21:07:50 12° NNW 21:07:50 12° NNW visible
02 Oct -1.3 20:14:28 10° NW 20:16:29 15° N 20:17:26 14° NNE visible
03 Oct -1.4 19:21:28 10° WNW 19:23:45 17° NNW 19:26:04 10° NNE visible
03 Oct -0.7 20:59:10 10° NNW 20:59:37 12° NNW 20:59:37 12° NNW visible
04 Oct -1.4 20:06:34 10° NNW 20:08:26 14° N 20:09:09 13° NNE visible
